Home   Weather   Madison   Past weeks

Flag for USA Past Weather in Madison, Wisconsin, USA — Yesterday and Last 2 Weeks

47 °F

Light rain. Overcast.

Feels Like: 43 °F
Forecast: 44 / 47 °F
Wind: 8 mph from Southeast

Location: Dane County Regional-Truax Field

Current Time: Oct 26, 2016 at 12:56:59 AM

Latest Report: Oct 25, 2016 at 11:53 PM

Visibility: 10 mi

Pressure: 30.35 "Hg

Humidity: 86%

Dew Point: 43 °F

Location of MadisonLocation

Past Weather in Madison — Graph


Madison Temperature Yesterday

Maximum temperature yesterday: 51 °F (at 1:53 PM)
Minimum temperature yesterday: 33 °F (at 2:53 AM)
Average temperature yesterday: 43 °F

High & Low Weather Summary for the Past Weeks

High78 °F (Oct 17, 4:53 PM)100% (Oct 16, 12:53 AM)30.46 "Hg (Oct 16, 12:53 AM)
Low33 °F (Oct 25, 2:53 AM)29% (Oct 23, 3:53 PM)29.34 "Hg (Oct 17, 7:53 PM)
Average54 °F74%30.04 "Hg
* Reported Oct 10 10:53 PM — Oct 25 10:53 PM, Madison, Weather by CustomWeather, © 2016

Note: Actual official high and low records may vary slightly from our data, if they occured in-between our weather recording intervals... More about our weather records


Madison Weather History for the Previous 24 Hours

Scroll right to see more
Time TempWeatherWind HumidityBarometerVisibility
10:53 PM
Tue, Oct 25
47 °FLight rain. Mostly cloudy.10 mph86%30.33 "Hg10 mi
9:53 PM47 °FLight rain. Overcast.7 mph86%30.34 "Hg10 mi
8:53 PM48 °FLight rain. Overcast.8 mph83%30.36 "Hg10 mi
7:53 PM49 °FLight rain. Overcast.8 mph77%30.37 "Hg10 mi
6:53 PM50 °FOvercast.7 mph68%30.37 "Hg10 mi
5:53 PM50 °FMostly cloudy.7 mph68%30.37 "Hg10 mi
4:53 PM51 °FMostly cloudy.9 mph66%30.37 "Hg10 mi
3:53 PM51 °FMore clouds than sun.12 mph63%30.38 "Hg10 mi
2:53 PM51 °FMore clouds than sun.6 mph66%30.40 "Hg10 mi
1:53 PM51 °FMore clouds than sun.7 mph63%30.41 "Hg10 mi
12:53 PM50 °FMostly cloudy.9 mph66%30.43 "Hg10 mi
11:53 AM49 °FPartly sunny.5 mph69%30.45 "Hg10 mi
10:53 AM48 °FPartly sunny.6 mph71%30.46 "Hg10 mi
9:53 AM45 °FBroken clouds.No wind80%30.46 "Hg10 mi
8:53 AM40 °FBroken clouds.No wind89%30.46 "Hg10 mi
7:53 AM35 °FMostly cloudy.No wind96%30.46 "Hg9 mi
6:53 AM34 °FPartly cloudy.No wind97%30.46 "Hg10 mi
5:53 AM34 °FPartly cloudy.5 mph92%30.43 "Hg10 mi
4:53 AM33 °FClear.No wind96%30.42 "Hg10 mi
3:53 AM33 °FClear.No wind92%30.42 "Hg10 mi
2:53 AM33 °FClear.No wind92%30.43 "Hg10 mi
1:53 AM34 °FClear.No wind92%30.42 "Hg10 mi
12:53 AM35 °FClear.N/A85%30.42 "Hg10 mi
Weather by CustomWeather, © 2016

See weather overviewHow to use our weather pages